GFSNE_sfc_temp_000.txt.gz
Temp
46 48 47 48 49 49 49 49 47 44 45 53 58 63 70 71 69 68 67 67 68 68 68 68 68 69 70 70 70 69 68 67 66 65 64 64 63 64
49 47 47 46 47 48 49 51 51 48 45 54 58 62 70 71 67 67 66 66 67 67 66 65 66 68 68 68 67 67 66 66 65 64 63 63 62 63
49 48 47 47 46 48 50 52 51 51 48 53 55 59 66 68 65 66 64 64 65 67 66 65 65 66 66 65 65 65 65 64 64 63 62 61 61 62
49 47 47 49 48 49 52 52 52 53 53 51 55 56 62 68 65 64 63 66 63 66 66 65 64 64 64 63 63 63 63 63 63 62 61 61 60 61
48 48 49 49 49 50 51 52 53 55 54 53 53 57 66 66 62 64 63 63 64 65 65 65 64 63 63 62 61 61 60 60 60 60 60 59 59 59
50 50 50 49 50 51 52 52 54 53 54 52 52 57 64 64 63 59 59 62 61 64 64 64 64 63 62 62 61 59 58 59 59 58 58 58 58 58
51 51 50 52 55 56 55 54 55 53 53 52 52 58 61 58 58 61 60 61 60 61 59 59 60 59 60 62 59 58 57 58 59 58 57 56 56 56
48 49 50 52 53 57 57 60 58 53 52 52 53 55 59 60 61 61 61 59 55 61 58 56 58 56 57 57 59 58 58 58 58 58 57 56 56 56
48 49 49 52 53 53 56 60 61 60 59 55 54 58 61 63 63 62 62 61 59 60 59 53 56 54 57 59 58 58 58 57 57 57 56 56 55 55
49 49 49 49 51 53 54 56 57 59 58 58 55 57 66 67 66 67 65 63 60 62 62 53 56 53 56 55 58 57 57 56 56 56 56 55 54 55
50 50 50 49 53 55 53 53 56 57 61 60 60 59 65 66 68 67 64 60 57 58 61 56 56 53 50 49 55 56 56 55 55 56 56 55 54 54
49 50 51 51 53 54 52 53 54 57 58 59 59 59 62 65 66 69 66 60 59 57 60 55 56 54 48 49 51 53 53 55 54 54 54 54 53 47
47 48 49 52 53 54 55 55 56 59 58 58 60 60 61 65 69 70 70 65 60 57 62 60 57 51 49 47 48 50 51 51 49 50 53 53 52 51
46 48 48 51 53 55 55 57 58 60 59 57 58 60 60 65 68 70 69 67 68 64 65 63 58 57 50 47 46 50 49 47 49 47 46 51 53 54
49 50 51 52 53 54 56 56 58 59 58 57 58 59 63 68 70 69 69 67 60 65 66 64 61 56 55 51 48 50 48 47 49 48 47 46 47 46
50 48 50 51 53 53 53 55 57 59 58 58 59 62 66 67 68 68 62 63 61 61 62 63 62 60 51 54 54 51 49 47 51 50 49 48 49 49
49 48 48 47 47 49 51 52 54 58 57 59 60 61 64 67 67 67 64 60 58 58 56 60 57 57 56 56 52 53 51 49 52 51 48 46 47 48
48 45 45 45 45 46 48 49 52 57 59 60 60 62 64 65 64 65 62 60 58 59 57 57 55 55 54 53 55 53 49 51 50 51 48 46 45 45
44 44 44 44 44 45 47 48 50 53 60 60 61 64 65 65 64 63 62 60 59 58 58 57 58 56 52 46 47 48 52 50 50 48 50 47 45 44
45 44 44 44 44 44 46 47 50 53 58 60 62 63 65 64 64 62 62 60 59 58 55 58 59 60 55 50 48 46 48 52 52 50 47 43 46 49
45 44 45 44 44 45 46 47 50 52 56 59 60 62 64 64 63 63 62 59 58 57 55 56 60 58 55 55 50 43 45 47 54 54 47 46 42 43
45 44 44 45 44 45 46 47 49 52 56 59 58 60 63 63 63 62 61 58 59 58 58 58 55 57 57 55 49 43 41 44 46 46 46 47 46 42
46 46 44 45 45 45 46 46 48 50 53 58 58 59 61 61 62 62 61 61 58 57 56 53 56 57 55 53 49 47 44 46 48 44 43 45 46 48

GFSNE_sfc_temp_006.txt.gz
Temp
43 44 44 47 46 46 46 46 42 38 39 44 47 50 53 54 56 58 59 61 70 69 69 69 69 70 70 72 71 71 70 70 69 68 67 66 65 65
46 44 45 46 45 46 46 47 45 43 39 44 45 48 52 55 56 58 58 61 68 69 68 67 68 69 69 69 69 69 69 69 68 67 66 65 64 64
45 45 45 46 45 46 47 47 45 44 41 45 47 49 51 51 54 56 57 61 67 69 68 66 67 67 67 67 67 67 67 67 67 66 65 64 63 63
44 44 45 48 46 47 47 46 45 46 44 43 47 48 50 52 54 55 56 65 65 68 68 67 66 65 65 64 64 65 64 65 65 65 64 63 62 62
45 44 45 46 45 46 48 46 46 48 48 46 47 51 51 51 53 56 55 64 65 66 67 66 65 64 64 63 62 62 62 62 62 62 62 62 61 61
46 46 46 47 46 47 48 48 48 49 50 49 49 50 50 52 53 54 56 62 63 65 66 66 65 64 63 62 62 60 59 60 60 60 59 60 60 59
45 46 48 50 56 56 50 48 48 49 50 49 50 49 50 49 51 53 58 60 62 64 62 63 63 62 62 62 60 59 58 59 59 59 58 57 58 58
45 47 47 52 51 56 55 54 53 50 50 50 50 49 50 52 53 53 57 58 56 63 61 59 62 61 60 60 60 59 58 58 58 58 57 57 56 57
48 46 46 51 51 50 52 53 54 56 56 53 51 52 52 54 54 54 57 59 58 60 61 56 61 58 57 58 59 58 58 58 57 56 56 56 56 57
45 45 44 46 49 50 49 50 51 52 53 55 55 55 55 56 55 61 62 62 60 61 63 54 58 55 54 54 57 58 58 56 56 56 56 56 55 56
45 45 45 47 51 54 49 48 50 52 57 57 59 59 58 57 57 59 59 56 54 56 62 56 54 51 50 53 55 57 56 56 56 56 56 55 55 55
47 44 50 50 53 53 49 49 48 50 54 56 56 56 58 58 58 60 62 58 56 53 58 55 53 51 48 50 52 54 54 55 54 55 55 55 54 46
46 46 45 51 52 53 53 49 49 53 53 55 56 56 56 56 57 59 65 62 57 55 59 56 55 48 47 48 51 49 50 51 48 51 54 53 53 49
46 46 44 51 53 53 52 53 53 53 52 54 55 55 55 55 57 60 66 65 64 61 62 59 55 53 49 48 48 50 45 45 46 46 45 51 53 52
49 49 51 52 52 50 51 52 52 49 49 50 55 56 57 58 60 61 65 66 65 61 63 58 58 50 52 52 48 49 46 43 45 45 44 45 45 46
48 45 49 50 51 50 48 48 48 48 48 49 56 57 59 58 59 61 60 62 59 57 61 58 60 55 47 52 52 48 45 44 45 45 44 43 44 46
48 44 44 44 45 45 45 46 47 47 47 54 56 56 57 58 59 60 62 61 57 55 53 53 54 51 51 53 48 49 47 43 48 45 43 42 43 45
43 40 40 42 43 44 43 43 45 46 47 49 57 57 57 58 59 60 60 60 57 55 54 51 53 51 51 50 53 49 48 45 48 47 46 43 42 43
38 39 40 42 43 44 43 43 43 45 47 48 54 58 58 59 60 60 58 60 57 56 53 53 54 54 52 47 44 50 50 47 47 46 47 43 42 42
38 38 40 42 43 43 43 43 44 45 47 49 51 58 59 59 60 58 60 59 57 55 52 54 55 56 55 49 44 43 49 49 49 47 43 43 45 48
37 39 41 42 44 44 43 44 44 45 47 49 52 58 60 60 59 60 61 57 56 54 51 53 57 55 50 51 47 42 45 48 52 51 44 43 44 44
38 39 41 43 44 44 43 44 44 45 46 48 49 59 60 61 61 61 61 56 56 55 55 55 52 53 52 51 47 43 43 42 46 47 46 46 44 41
41 43 41 43 44 44 44 44 44 45 46 47 48 54 59 60 62 62 60 58 57 56 53 50 51 51 49 50 47 45 42 44 46 47 43 45 47 48

GFSNE_sfc_temp_009.txt.gz
Temp
41 42 42 44 43 44 44 43 41 38 40 46 46 51 49 49 52 54 54 58 60 61 63 69 70 70 71 72 71 71 71 70 70 70 69 68 67 66
44 41 42 43 43 43 43 44 44 42 39 45 46 49 50 51 52 55 54 57 59 61 61 66 68 69 70 70 70 69 69 69 69 69 68 67 66 65
42 42 43 44 43 43 43 44 44 45 41 44 46 48 48 48 49 53 54 55 56 60 62 65 66 67 68 68 67 67 67 68 68 68 67 66 65 64
42 42 43 47 43 44 43 43 44 46 44 42 45 46 47 50 50 51 53 58 58 60 65 66 65 66 66 65 65 65 65 66 66 66 66 65 64 63
42 42 43 43 42 43 43 43 46 48 47 45 45 49 49 50 50 52 53 54 58 60 66 66 65 65 64 63 63 62 62 62 63 63 64 64 63 62
44 44 44 44 44 43 44 46 48 47 47 46 46 48 48 50 50 49 50 54 55 64 66 66 66 64 64 63 62 61 60 61 61 61 60 61 61 61
44 46 45 48 55 54 50 49 48 46 46 46 48 48 48 49 48 51 51 53 58 63 63 63 64 63 63 63 61 60 59 60 60 60 59 58 59 59
43 44 45 50 48 54 55 55 53 47 47 48 49 48 49 47 49 50 50 50 56 64 61 61 64 61 62 61 61 59 59 59 59 58 58 57 57 58
41 42 45 49 49 46 50 54 53 54 54 51 49 51 49 51 51 52 52 51 59 61 62 59 62 59 60 59 59 59 59 58 57 57 56 56 57 57
42 42 42 43 44 48 48 49 50 50 52 53 53 53 51 55 55 55 54 53 60 62 64 56 59 55 56 57 58 58 58 57 56 56 56 56 56 56
43 43 43 43 49 53 49 48 49 50 55 56 56 57 59 58 56 55 54 56 56 57 63 57 54 52 53 54 57 57 56 56 56 56 56 55 55 56
45 44 50 50 53 53 49 48 45 47 50 51 52 57 59 57 58 56 56 57 57 55 59 54 53 51 48 51 53 54 54 55 55 55 55 55 54 47
46 46 48 51 52 53 54 48 48 51 51 50 52 55 56 56 56 57 57 61 58 54 60 57 57 50 50 49 51 48 51 52 50 53 54 54 53 48
45 47 45 50 52 53 52 52 52 52 48 48 49 53 54 55 56 58 59 64 65 60 60 61 59 54 49 50 48 48 45 46 48 47 46 52 53 52
48 49 51 51 51 50 51 52 50 47 47 46 47 49 56 57 57 58 60 62 60 61 62 62 60 52 51 53 48 49 45 43 45 45 44 44 45 45
47 42 48 49 49 49 49 48 47 46 46 46 47 49 56 56 56 58 58 60 57 57 60 59 59 56 49 51 52 48 44 43 44 43 43 43 44 45
46 41 40 40 41 43 46 45 45 46 45 46 47 51 55 56 56 59 59 59 56 54 54 55 56 50 51 53 47 49 47 42 47 43 42 41 42 44
41 37 37 38 39 42 44 43 44 45 45 46 47 51 56 56 56 58 59 58 55 55 54 51 51 49 50 48 53 48 47 44 46 46 43 42 41 43
37 36 36 38 39 42 43 43 42 44 46 46 47 49 57 57 56 58 58 58 55 54 53 53 52 52 49 46 45 50 50 46 45 45 45 43 42 42
36 36 36 38 39 42 43 43 43 44 45 46 47 50 56 57 57 58 57 57 55 54 51 53 53 54 53 51 44 43 49 48 47 47 43 43 45 48
36 36 37 38 40 42 44 44 43 43 44 45 47 49 54 57 58 57 58 56 56 53 50 51 54 55 49 50 45 42 44 46 51 50 45 43 44 44
36 36 38 38 40 43 44 43 43 43 44 44 46 48 48 58 59 58 57 56 55 54 54 55 51 51 51 49 45 42 42 42 46 48 47 46 44 42
41 42 40 38 41 43 44 43 43 43 44 44 45 47 47 57 58 61 58 58 55 55 54 49 50 50 46 48 46 44 42 44 45 44 43 45 47 48

GFSNE_sfc_temp_012.txt.gz
Temp
40 40 39 42 41 41 41 41 39 36 39 46 46 50 51 52 52 53 51 54 57 60 60 61 62 62 68 72 72 71 71 71 71 70 70 70 69 67
42 40 39 41 40 41 41 42 41 40 37 46 47 50 52 53 53 52 52 55 57 59 59 60 60 61 67 70 70 70 70 70 70 69 69 69 67 66
41 40 40 41 40 40 41 41 41 41 39 43 48 51 50 49 50 50 51 50 51 57 59 60 60 61 66 68 68 68 68 68 69 69 68 67 66 65
41 40 41 46 41 41 41 41 42 43 41 41 46 47 48 50 50 49 50 52 53 57 59 60 60 62 66 65 65 66 66 66 67 67 67 66 65 65
41 40 42 41 40 41 41 41 42 44 43 43 44 47 47 48 48 50 49 49 54 57 59 61 60 63 65 64 63 63 63 63 64 64 65 65 64 64
43 42 42 42 41 42 42 43 44 43 46 45 45 46 47 50 49 48 48 50 51 57 60 60 63 64 64 64 63 62 61 62 62 62 61 62 63 62
42 43 44 46 54 53 49 45 44 44 45 45 45 46 47 47 47 49 48 50 52 54 55 59 63 63 63 63 62 60 60 61 61 61 60 59 60 60
41 42 43 49 47 53 54 54 52 47 46 45 46 46 48 49 50 49 49 49 48 55 53 61 63 62 63 63 62 60 60 60 60 59 58 58 58 59
40 40 42 48 48 44 48 52 52 54 54 50 47 47 49 51 51 49 50 51 51 56 61 60 62 60 62 61 60 60 59 59 58 57 57 57 57 58
40 40 40 41 42 46 48 48 49 50 51 51 50 50 52 53 53 53 53 53 54 54 64 58 61 57 59 59 59 59 58 57 56 57 56 56 56 57
41 41 41 42 50 53 49 47 47 49 54 55 55 54 55 58 56 55 52 52 52 57 61 58 56 55 56 56 58 57 56 56 56 56 56 55 55 56
41 42 49 51 54 54 49 47 46 47 49 50 49 51 55 57 58 54 55 54 54 56 57 55 55 53 49 53 56 56 56 55 55 55 55 55 54 51
41 43 47 51 52 53 53 47 48 51 49 47 48 49 53 55 55 56 56 55 57 55 58 58 54 54 50 50 50 52 54 54 52 54 54 54 52 50
41 45 43 50 52 52 51 52 54 50 46 46 47 48 50 54 55 56 57 58 60 59 62 62 57 55 51 50 47 47 47 48 52 50 50 53 52 52
44 46 51 51 50 47 49 52 51 46 45 45 45 46 48 50 56 57 58 58 58 61 63 65 57 55 58 54 49 47 46 46 48 49 47 48 48 48
46 42 46 48 48 47 45 47 47 46 45 45 45 47 49 50 55 56 56 55 55 53 57 63 59 59 54 53 53 47 44 45 45 46 45 46 47 48
46 40 38 37 38 39 41 44 46 45 44 45 45 46 48 51 55 57 56 55 54 52 51 55 55 55 56 55 49 50 47 45 48 46 45 44 45 47
41 36 35 35 36 38 39 42 44 44 44 45 46 47 48 51 55 57 56 56 53 52 50 52 52 51 52 51 54 49 47 47 48 48 46 44 44 45
36 35 34 35 36 37 40 42 43 44 45 45 45 46 49 52 55 56 56 56 54 52 52 54 53 53 50 45 45 50 50 47 46 46 47 45 45 45
35 34 35 35 36 37 40 42 44 43 44 45 45 46 48 50 55 56 56 55 53 52 52 53 54 55 54 50 44 46 48 48 49 48 44 44 46 48
35 35 35 36 36 37 41 42 44 43 44 44 45 45 47 47 56 57 56 55 54 52 50 51 55 55 50 50 45 43 45 47 50 50 46 44 44 45
35 35 37 37 37 38 42 42 43 43 43 44 44 45 46 48 52 57 56 54 54 53 53 54 52 52 50 49 45 43 42 44 46 47 47 47 45 42
37 38 40 41 38 39 40 42 43 43 43 44 44 45 46 45 47 57 57 57 55 54 53 50 51 53 48 49 46 44 42 43 45 44 44 46 47 47

GFSNE_sfc_temp_015.txt.gz
Temp
55 55 54 55 55 55 53 52 48 43 47 55 55 61 60 61 60 60 58 57 58 58 58 59 60 62 62 63 63 70 72 72 72 72 72 71 70 69
55 53 54 55 54 54 52 52 51 47 44 53 55 58 59 60 60 58 57 57 57 57 58 58 59 61 62 62 61 69 70 71 71 71 70 70 69 68
54 52 52 54 53 53 52 51 50 49 45 51 55 57 57 57 57 55 54 56 58 57 57 58 59 60 61 60 60 69 69 69 70 70 69 69 68 67
53 53 52 54 53 53 52 51 51 52 48 46 52 53 54 53 54 51 52 55 56 56 57 57 58 59 60 58 62 67 67 67 68 68 68 68 67 66
53 52 52 52 51 53 52 52 51 52 51 47 46 51 53 55 50 51 51 52 55 56 57 58 59 59 60 59 63 64 64 64 65 65 66 66 66 65
53 53 53 52 52 52 52 51 51 50 49 47 48 50 48 49 49 47 47 51 50 55 58 58 59 60 59 58 63 62 62 63 63 63 62 63 64 64
53 54 53 53 54 55 54 53 51 48 48 47 48 46 45 46 46 49 49 51 54 55 55 58 57 56 56 62 62 61 61 62 62 62 61 60 61 61
52 54 53 52 52 53 54 54 53 48 45 48 45 44 46 47 48 49 52 49 47 56 54 55 56 53 58 67 63 61 61 61 60 60 59 59 59 60
52 51 51 54 52 52 52 53 52 53 54 50 46 46 46 48 49 49 50 51 53 58 55 52 54 54 64 64 61 60 60 59 59 58 58 58 58 59
51 51 50 51 51 51 51 50 51 51 52 52 50 49 50 51 50 51 52 55 56 57 56 51 58 60 62 61 59 59 59 58 57 57 57 57 57 58
52 51 51 50 52 54 51 48 50 53 56 55 55 54 54 54 55 53 52 51 51 57 57 57 58 57 58 57 58 58 57 56 56 57 57 56 56 57
52 51 51 52 53 54 51 51 49 51 48 51 50 50 51 52 56 59 57 52 52 57 58 55 57 56 50 56 57 59 60 56 55 55 55 55 55 62
50 51 52 52 52 53 53 52 50 51 49 48 48 48 49 53 59 58 60 56 55 54 58 60 58 54 52 50 53 59 62 59 58 56 54 54 54 59
50 52 52 51 52 52 52 51 53 52 48 47 47 46 47 49 52 60 60 59 61 59 60 64 58 55 54 50 46 56 60 61 58 57 61 55 52 53
52 51 51 52 51 50 50 51 51 49 46 45 45 45 47 51 53 60 61 61 62 60 67 65 60 58 59 53 47 50 54 57 58 55 59 58 58 59
50 51 50 50 49 48 48 49 50 48 46 45 45 47 49 50 53 57 56 56 55 56 60 62 62 62 54 54 53 55 56 54 57 58 59 58 59 60
49 49 47 47 46 46 47 48 48 48 45 45 46 46 48 49 51 57 56 56 53 52 53 55 57 61 60 60 54 56 57 56 58 58 57 55 57 59
48 46 45 45 44 45 45 46 47 47 46 45 45 46 47 48 50 57 56 56 52 51 51 54 53 52 52 56 58 58 58 56 57 57 57 55 55 58
45 44 44 44 44 44 45 45 45 48 47 45 45 46 47 48 49 55 55 54 52 51 51 55 56 54 50 49 57 52 57 56 55 54 56 58 58 57
43 43 43 44 44 44 45 45 45 48 46 44 45 46 46 47 48 53 55 53 53 52 51 55 57 61 60 57 52 59 49 56 56 54 54 53 52 50
44 43 44 44 45 45 45 44 45 47 46 44 45 45 46 46 47 51 55 53 54 53 52 53 56 57 59 58 53 52 55 49 56 58 55 54 52 51
44 44 44 45 45 45 44 44 45 46 46 44 44 45 46 46 46 47 55 54 54 56 55 55 54 55 59 60 57 53 52 55 48 47 48 51 55 51
45 45 45 45 45 45 46 46 46 46 46 44 44 45 45 45 46 47 55 56 57 58 55 51 56 59 58 58 53 53 51 51 52 53 55 46 46 48

GFSNE_sfc_temp_021.txt.gz
Temp
63 62 62 63 63 62 61 59 55 49 51 58 58 64 65 65 65 65 65 64 64 64 63 63 62 61 61 61 62 63 65 66 65 66 65 71 73 72
64 63 62 63 62 62 60 60 58 54 49 57 58 61 64 65 64 64 64 63 63 63 63 61 61 61 61 61 61 62 63 65 64 65 63 64 65 71
63 62 61 62 60 60 60 59 57 57 51 56 59 61 61 61 62 62 63 62 62 63 62 61 61 60 59 59 59 60 61 63 63 63 60 64 66 70
62 61 60 62 59 59 59 57 57 58 55 51 56 57 57 59 60 59 59 62 60 60 60 60 60 59 59 59 59 60 60 61 61 61 61 64 68 70
62 61 61 61 59 59 59 58 58 58 57 54 53 56 56 58 57 58 58 59 60 60 59 59 59 59 59 58 58 58 59 59 59 59 61 63 67 68
64 62 62 60 59 58 58 57 57 55 55 53 52 52 54 55 55 53 53 56 54 56 57 58 59 59 59 59 58 58 57 58 58 58 59 58 65 66
62 62 61 61 60 59 56 55 54 53 52 50 50 50 50 51 51 51 48 49 51 53 53 54 56 57 56 59 58 57 57 56 57 59 59 58 63 64
60 61 62 60 59 58 58 57 56 52 50 49 49 48 50 52 51 48 46 45 43 54 50 50 56 55 56 56 58 58 57 55 56 57 58 60 61 62
60 60 60 62 59 58 58 58 57 57 57 54 51 51 51 52 49 47 46 46 45 50 49 47 53 53 56 56 57 57 57 56 57 58 59 60 60 61
60 60 59 58 58 57 55 54 55 56 57 59 57 55 54 52 51 50 48 48 49 50 51 46 53 52 55 55 57 57 56 57 58 59 59 59 59 59
60 60 58 57 57 56 54 52 54 55 60 60 58 57 57 56 54 49 47 46 48 50 53 51 53 52 53 53 56 56 57 58 58 58 58 57 57 58
59 59 56 56 55 55 52 52 51 53 54 53 55 54 54 52 53 49 48 49 51 50 54 51 52 52 50 54 56 58 58 57 56 57 57 57 57 59
58 57 58 56 54 54 54 53 52 53 53 53 51 50 49 49 48 50 52 54 51 50 56 54 52 53 54 54 55 57 57 56 56 56 55 55 56 59
57 57 57 54 53 53 53 54 54 53 53 51 48 47 46 46 49 51 53 55 57 55 57 58 56 55 54 52 51 54 55 57 57 55 56 57 55 57
57 56 53 53 53 53 54 54 53 53 51 48 46 45 46 49 51 52 54 57 58 60 59 59 56 56 57 53 51 52 53 55 57 56 56 55 58 59
54 53 53 53 53 52 52 54 54 53 50 47 47 47 49 49 49 51 51 57 55 56 58 59 58 57 54 54 54 54 55 52 56 56 57 58 59 59
54 53 52 50 49 51 52 52 52 53 50 49 47 46 46 48 48 50 51 56 55 53 52 54 56 58 57 56 54 56 55 55 57 56 56 55 57 58
50 48 48 48 47 50 50 50 51 51 50 48 48 46 45 46 47 49 51 54 54 53 52 53 53 52 52 54 57 55 55 55 57 58 57 54 55 58
47 48 47 47 49 50 49 49 49 50 50 47 46 45 46 46 47 47 48 53 52 54 53 54 54 53 49 47 53 54 56 56 56 56 57 55 54 55
48 48 48 49 49 49 49 49 49 49 47 47 47 45 45 45 46 46 47 48 52 53 53 54 55 55 53 52 54 55 54 59 57 56 54 50 52 52
48 48 49 49 49 50 50 48 48 48 49 47 47 45 45 45 45 45 46 47 52 53 52 54 56 56 56 60 55 55 56 50 57 58 54 52 50 50
49 48 49 49 50 49 49 48 48 48 49 48 48 45 45 45 44 45 45 46 50 53 51 52 55 56 55 55 54 55 54 49 48 46 46 49 52 48
49 50 49 50 50 49 49 49 49 49 49 48 47 46 45 44 45 45 45 46 47 53 52 50 53 54 54 55 54 54 53 51 52 51 48 45 47 47

GFSNE_sfc_temp_024.txt.gz
Temp
51 51 50 50 51 50 49 48 44 38 40 44 46 51 52 53 56 56 55 61 64 64 64 64 64 64 64 64 62 62 63 63 65 67 67 68 65 70
52 51 50 50 50 50 49 48 47 43 40 45 47 49 52 58 57 57 55 62 63 63 63 62 63 63 63 62 62 61 61 62 64 65 65 67 64 64
52 51 51 51 49 49 48 47 46 45 42 45 48 50 49 50 52 52 54 52 54 61 62 62 61 61 61 61 61 61 61 61 62 64 65 65 64 64
51 51 51 56 49 49 47 47 46 47 44 44 45 47 47 49 50 51 54 58 55 60 62 61 61 60 60 60 60 60 60 60 61 62 64 64 63 63
51 51 51 51 48 47 47 47 47 51 46 44 45 45 46 48 50 49 51 53 56 59 61 61 60 59 59 59 58 58 58 58 59 60 61 62 62 63
53 52 52 51 49 48 49 47 48 45 44 43 43 44 46 47 48 47 48 51 51 57 59 59 59 59 59 59 59 58 57 57 58 59 59 59 60 62
52 54 52 55 60 56 51 46 45 43 42 41 43 44 47 45 45 47 46 49 51 52 52 53 53 54 54 57 58 58 57 57 58 59 58 57 58 60
50 51 53 59 58 60 59 58 53 43 42 41 46 46 47 47 48 49 47 45 43 54 49 48 53 51 54 53 56 58 57 57 57 58 58 57 58 59
50 50 53 58 55 51 57 58 56 57 57 50 48 46 47 46 47 47 47 46 46 50 49 46 51 49 53 55 56 57 57 57 57 57 57 57 58 60
50 50 49 50 51 51 48 47 47 48 50 53 50 48 49 51 51 50 48 47 48 49 50 44 49 48 51 52 56 57 57 56 55 56 56 57 58 60
51 51 50 49 56 57 48 45 45 47 56 57 56 56 56 57 56 49 46 45 44 46 51 48 49 48 49 50 52 56 56 55 55 56 57 57 58 58
49 50 56 51 57 56 46 44 42 44 45 47 48 50 53 51 54 50 47 44 45 47 51 48 49 49 47 51 52 54 54 56 55 55 57 57 57 57
49 48 50 57 56 55 54 45 45 48 48 46 45 47 48 49 49 50 49 48 47 48 52 52 51 49 50 49 51 53 54 54 55 56 56 55 55 56
48 48 49 55 55 54 52 53 54 53 46 43 45 46 46 46 49 49 50 51 52 52 55 54 51 48 51 52 50 54 55 56 56 55 56 56 55 56
49 51 53 53 53 52 52 54 54 45 43 41 44 44 45 49 50 50 51 52 55 57 57 57 56 55 55 52 51 52 52 53 55 54 54 54 54 55
53 48 50 50 52 50 49 48 47 45 43 42 47 44 48 48 48 49 48 50 54 55 57 57 57 56 53 53 53 51 52 49 53 53 53 51 54 54
48 45 44 43 43 43 43 44 44 44 42 42 47 43 45 47 47 49 49 51 52 53 53 54 55 56 55 54 51 52 52 51 53 52 53 50 49 52
46 42 42 41 42 43 41 41 42 44 42 43 46 43 44 45 45 47 49 51 52 52 52 53 52 51 52 54 55 53 53 52 53 53 52 51 47 49
41 41 41 42 42 42 41 41 40 41 43 44 45 42 44 45 45 45 46 48 52 52 52 53 52 51 48 45 49 52 53 53 53 51 50 48 47 47
42 41 41 42 41 41 41 41 41 41 43 46 45 44 44 44 44 44 45 45 50 52 52 52 53 53 50 48 49 50 52 55 54 52 46 45 48 50
41 42 42 43 42 42 42 42 42 44 45 45 45 44 44 44 44 44 44 46 47 52 51 52 54 55 55 57 52 52 51 48 54 53 48 48 45 45
42 42 43 46 43 42 41 41 42 45 43 43 45 43 44 44 43 44 44 44 46 47 51 54 55 54 54 54 51 51 45 46 47 46 46 47 47 44
42 44 45 46 43 42 42 42 43 43 43 42 43 42 43 43 44 44 44 45 45 46 51 53 53 54 53 53 52 51 47 48 50 47 45 45 46 48

GFSNE_sfc_temp_030.txt.gz
Temp
53 51 50 47 46 46 45 44 43 37 37 41 43 45 47 48 52 52 51 57 62 62 63 63 63 63 64 64 65 65 65 66 66 64 64 66 66 67
53 50 47 45 46 45 44 44 43 41 38 41 42 44 46 52 52 52 51 58 60 61 61 61 61 62 62 63 63 63 64 64 63 64 64 64 65 66
54 51 49 47 47 44 43 42 42 41 39 41 42 44 44 45 48 47 49 47 47 58 60 60 60 61 61 61 62 62 63 63 63 63 64 64 64 65
51 51 50 51 45 44 43 43 42 41 41 40 40 42 43 44 44 44 49 53 48 56 59 59 59 59 60 60 60 61 61 61 61 62 63 63 63 64
53 52 51 50 45 43 42 42 42 47 41 40 40 40 41 42 42 43 44 44 49 55 57 58 59 59 60 60 59 59 59 59 59 60 61 62 62 63
54 53 51 50 49 45 45 43 44 42 40 39 39 39 40 42 40 40 42 42 44 51 54 56 57 58 59 59 59 59 58 58 58 58 58 59 61 61
51 52 50 53 56 51 48 42 42 40 39 39 38 38 38 38 38 40 39 43 45 47 47 48 49 50 53 57 58 58 57 57 58 58 58 58 58 60
49 49 51 57 58 59 58 55 48 41 40 39 39 38 38 40 40 39 41 40 40 48 47 46 52 51 52 53 56 56 56 56 57 57 57 57 58 58
51 49 50 55 55 51 59 58 56 56 53 43 40 39 38 40 40 41 42 42 42 47 48 45 51 49 53 54 56 56 56 56 56 56 56 57 57 58
51 49 51 48 49 49 47 46 45 46 47 49 44 43 43 43 41 45 45 46 48 49 50 43 49 47 51 52 55 55 56 55 55 56 56 56 56 57
49 50 50 47 54 56 45 44 43 43 52 55 55 55 55 55 54 49 45 44 43 45 49 46 47 46 48 49 51 54 55 55 55 56 56 56 56 56
47 48 54 49 57 57 44 42 40 41 42 43 43 45 48 46 52 49 46 43 43 42 48 45 46 46 45 49 50 51 52 54 54 55 55 56 55 54
48 47 49 56 58 57 50 42 43 44 45 42 40 40 42 44 45 48 49 46 43 43 49 47 48 47 48 46 48 50 51 53 53 53 54 54 54 54
48 48 50 56 57 56 51 52 53 52 42 39 38 39 40 43 46 48 49 48 49 47 49 50 48 49 47 47 46 50 51 52 52 50 51 54 54 54
50 51 53 56 56 54 53 53 52 42 39 37 37 37 41 45 47 48 49 50 51 55 53 51 51 50 51 48 46 48 48 49 50 49 51 54 54 54
53 51 52 50 49 48 47 46 43 41 39 37 37 39 42 44 46 47 46 48 51 51 53 54 53 52 50 49 49 48 49 46 49 52 53 53 54 56
48 46 44 41 40 40 40 41 40 40 38 38 38 40 42 44 46 47 47 48 50 50 50 51 54 54 51 50 49 49 49 49 52 52 51 49 50 52
46 42 40 40 38 38 38 38 38 40 38 38 42 40 40 43 45 46 46 46 50 50 50 51 51 50 51 52 54 51 52 51 52 52 52 49 47 46
43 41 40 39 38 38 38 38 37 38 38 40 43 39 41 44 44 44 45 46 51 51 51 53 52 51 47 45 49 50 51 51 51 50 51 49 49 46
43 42 40 38 38 37 38 38 37 38 39 40 43 39 40 43 43 43 44 44 48 51 50 51 51 50 48 47 47 46 49 53 51 49 45 46 47 49
43 41 39 40 39 38 39 38 39 39 39 39 41 38 40 42 42 43 44 45 46 49 48 48 50 54 53 53 47 46 45 45 49 48 48 46 43 43
42 39 40 40 40 39 39 38 38 39 38 38 38 38 39 42 42 42 43 43 44 47 48 49 51 51 50 50 47 44 43 45 45 45 45 45 46 43
42 40 40 41 40 39 39 39 38 38 38 38 38 38 39 41 42 43 43 44 45 46 49 48 49 50 49 49 47 45 43 46 45 44 45 45 46 48